Change the Weather History Date:

Thursday, September 4, 2014

  Actual Average Record
Temperature  
Mean Temperature 59 °F -  
Max Temperature 66 °F 80 °F 105 °F (2001)
Min Temperature 51 °F 53 °F 42 °F (1999)
Degree Days  
Heating Degree Days 6    
Growing Degree Days 9 (Base 50)    
Moisture  
Dew Point 41 °F    
Average Humidity 50    
Maximum Humidity 66    
Minimum Humidity 40    
Precipitation  
Precipitation 0.00 in - - ()
Sea Level Pressure  
Sea Level Pressure 29.97 in    
Wind  
Wind Speed 26 mph (NNW)    
Max Wind Speed 41 mph    
Max Gust Speed 50 mph    
Visibility 10 miles    
Events      
Averages and records for this station are not official NWS values.
T = Trace of Precipitation, MM = Missing Value Source: NWS Daily Summary

Daily Weather History Graph

Daily Weather History Graph

Search for Another Location

Airport or City:

Trip Planner

Search our weather history database for the weather conditions in past years. The results will help you decide how hot, cold, wet, or windy it might be!

Date:

Astronomy

Sep. 04, 2014 Rise Set
Actual Time 6:18 AM MDT 7:22 PM MDT
Civil Twilight 5:49 AM MDT 7:52 PM MDT
Nautical Twilight 5:13 AM MDT 8:27 PM MDT
Astronomical Twilight 4:36 AM MDT 9:04 PM MDT
Moon 4:09 PM MDT (9/4) 1:05 AM MDT (9/4)
Length of Visible Light 14h 03m
Length of Day
13h 03m
Waxing Gibbous, 75% of the Moon is Illuminated
Sep 4
Waxing Gibbous
Sep 8
Full
Sep 15
Last Quarter
Sep 24
New
Oct 1
First Quarter

Hourly Weather History & Observations

Time (MDT) Temp. Dew Point Humidity Pressure Visibility Wind Dir Wind Speed Gust Speed Precip Events Conditions
12:58 AM 62.8 °F 47.5 °F 57% 29.70 in 10.0 mi NNW 31.1 mph 41.4 mph N/A   Overcast
1:17 AM 62.6 °F 46.4 °F 55% 29.70 in 10.0 mi NNW 36.8 mph 48.3 mph N/A   Squalls
1:20 AM 62.6 °F 46.4 °F 55% 29.70 in 10.0 mi North 41.4 mph 49.5 mph N/A   Squalls
1:58 AM 61.7 °F 43.3 °F 51% 29.75 in 10.0 mi NNW 26.5 mph 36.8 mph N/A   Mostly Cloudy
2:58 AM 61.0 °F 37.6 °F 42% 29.79 in 10.0 mi NNW 26.5 mph 33.4 mph N/A   Mostly Cloudy
3:58 AM 58.5 °F 37.0 °F 45% 29.82 in 10.0 mi NNW 18.4 mph - N/A   Scattered Clouds
4:58 AM 57.4 °F 37.6 °F 48% 29.86 in 10.0 mi NNW 23.0 mph 29.9 mph N/A   Scattered Clouds
5:58 AM 56.5 °F 39.9 °F 54% 29.88 in 10.0 mi NNW 21.9 mph 29.9 mph N/A   Overcast
6:58 AM 56.1 °F 39.9 °F 55% 29.90 in 10.0 mi NNW 19.6 mph - N/A   Mostly Cloudy
7:58 AM 57.7 °F 38.3 °F 48% 29.90 in 10.0 mi NNW 23.0 mph 29.9 mph N/A   Mostly Cloudy
8:58 AM 59.9 °F 39.4 °F 47% 29.92 in 10.0 mi NNW 26.5 mph 32.2 mph N/A   Clear
9:58 AM 62.2 °F 40.8 °F 45% 29.95 in 10.0 mi North 25.3 mph 31.1 mph N/A   Clear
10:58 AM 61.0 °F 40.1 °F 46% 29.98 in 10.0 mi North 23.0 mph 31.1 mph N/A   Mostly Cloudy
11:58 AM 63.5 °F 40.1 °F 42% 30.00 in 10.0 mi North 27.6 mph 34.5 mph N/A   Overcast
12:58 PM 65.1 °F 40.3 °F 40% 30.02 in 10.0 mi NNW 21.9 mph 36.8 mph N/A   Scattered Clouds
1:58 PM 66.4 °F 42.3 °F 41% 30.03 in 10.0 mi NNW 26.5 mph 32.2 mph N/A   Clear
2:58 PM 65.7 °F 41.7 °F 42% 30.03 in 10.0 mi NNW 29.9 mph 34.5 mph N/A   Clear
3:58 PM 65.7 °F 41.5 °F 41% 30.06 in 10.0 mi NNW 21.9 mph 29.9 mph N/A   Clear
4:58 PM 65.1 °F 41.7 °F 42% 30.08 in 10.0 mi NNW 21.9 mph 31.1 mph N/A   Clear
5:58 PM 64.0 °F 40.8 °F 43% 30.10 in 10.0 mi North 18.4 mph 29.9 mph N/A   Clear
6:58 PM 60.8 °F 41.2 °F 48% 30.12 in 10.0 mi NW 12.7 mph - N/A   Clear
7:58 PM 56.7 °F 42.1 °F 58% 30.16 in 10.0 mi NW 8.1 mph - N/A   Clear
8:58 PM 54.0 °F 41.9 °F 64% 30.20 in 10.0 mi NW 8.1 mph - N/A   Clear
9:58 PM 52.3 °F 41.4 °F 66% 30.21 in 10.0 mi NNW 9.2 mph - N/A   Clear
10:58 PM 52.0 °F 40.5 °F 65% 30.23 in 10.0 mi NNW 8.1 mph - N/A   Clear
11:58 PM 51.4 °F 39.7 °F 64% 30.24 in 10.0 mi NNW 11.5 mph - N/A   Clear